This is the latest recevied weather packets stored in our database for station/object KO4ZGL-13. If no packets are shown the sender has not sent any weather packets the latest 10 day(s).
| Time | Temp. | Humidity | Pressure | Rain* | Wind** | Luminosity | Snow |
|---|---|---|---|---|---|---|---|
| 1788555800 | 34.44° C | 72% | 1014.5 hPa | 0 mm | - | 436 W/m² | - |
| 1788555497 | 34.44° C | 70% | 1014.5 hPa | 0 mm | - | 147 W/m² | - |
| 1788555192 | 34.44° C | 70% | 1014.5 hPa | 0 mm | - | 362 W/m² | - |
| 1788554889 | 35° C | 70% | 1014.4 hPa | 0 mm | - | 379 W/m² | - |
| 1788554584 | 33.89° C | 70% | 1014.6 hPa | 0 mm | - | 433 W/m² | - |
| 1788554281 | 33.89° C | 71% | 1015 hPa | 0 mm | - | 432 W/m² | - |
| 1788553977 | 34.44° C | 71% | 1014.7 hPa | 0 mm | - | 98 W/m² | - |
| 1788553672 | 33.89° C | 73% | 1014.7 hPa | 0 mm | - | 465 W/m² | - |
| 1788553369 | 33.89° C | 73% | 1014.8 hPa | 0 mm | - | 505 W/m² | - |
| 1788553064 | 32.78° C | 74% | 1015.2 hPa | 0 mm | - | 491 W/m² | - |
| 1788552764 | 33.33° C | 72% | 1015.3 hPa | 0 mm | - | 99 W/m² | - |
| 1788552458 | 33.89° C | 72% | 1015.2 hPa | 0 mm | - | 101 W/m² | - |
| 1788552153 | 35° C | 70% | 1015.4 hPa | 0 mm | - | 160 W/m² | - |
| 1788551852 | 35° C | 68% | 1015.2 hPa | 0 mm | - | 615 W/m² | - |
| 1788551551 | 34.44° C | 68% | 1015.4 hPa | 0 mm | - | 589 W/m² | - |
| 1788551246 | 34.44° C | 68% | 1015.2 hPa | 0 mm | - | 144 W/m² | - |
| 1788550945 | 35° C | 67% | 1015.2 hPa | 0 mm | - | 188 W/m² | - |
| 1788550641 | 35° C | 65% | 1015.3 hPa | 0 mm | - | 596 W/m² | - |
| 1788550337 | 34.44° C | 67% | 1015.4 hPa | 0 mm | - | 600 W/m² | - |
| 1788550037 | 34.44° C | 67% | 1015.5 hPa | 0 mm | - | 568 W/m² | - |
| 1788549732 | 34.44° C | 68% | 1015.4 hPa | 0 mm | - | 582 W/m² | - |
| 1788549429 | 35° C | 70% | 1015.4 hPa | 0 mm | - | 604 W/m² | - |
| 1788549125 | 35.56° C | 66% | 1015.7 hPa | 0 mm | - | 134 W/m² | - |
| 1788548821 | 35.56° C | 65% | 1015.4 hPa | 0 mm | - | 591 W/m² | - |
| 1788548517 | 35.56° C | 63% | 1015.5 hPa | 0 mm | - | 587 W/m² | - |
* Rain latest hour (hover to see other rain measurements)
** Current wind speed in m/s (hover to see current wind gust speed)